Вернуться в каталог

CZ-2D DEB

АктивенSSO
NORAD 43413·DEBRIS·🇨🇳 China

Запущен Nov 25, 2013 с Jiuquan Satellite Launch Center

Loading…

Ближайшие Пролёты (ближайшие 24 часа)

TLE

СвежийSource: Space-Track

Эпоха: Sep 14, 2026, 03:17 UTC

1 43413U 13068B   26257.13717891  .00001242  00000-0  29432-3 0  9994
2 43413  97.9723  22.1116 0106505  32.7795 327.9950 14.52277430664991

Отслеживайте CZ-2D DEB в реальном времени с AllMySat

Download on the App Store